Torna al catalogo

FENGYUN 1C DEB

LostPO
NORAD 37409·DEBRIS·🇨🇳 China

Lanciato May 10, 1999 da Taiyuan Satellite Launch Center

Loading…

Prossimi Passaggi (prossime 24 ore)

TLE

ObsoletoSource: Space-Track

Epoca: Sep 2, 2022, 15:51 UTC

1 37409U 99025EGB 22245.66055397  .00003519  00000-0  17893-2 0  9992
2 37409  97.7916 198.3890 0121502  36.5955 324.3444 14.12623884760428

Traccia FENGYUN 1C DEB in tempo reale con AllMySat

Download on the App Store